KD8BMB Weather Reports


time (UTC)temp
C
wind
direction
speed
KPH
gust
KPH
rain 1hr
cm
rain 24hr
cm
rain mn
cm
humidity
%
barometer
mb
20260509143824 15 315 0.0 0.0 0.00 0.00 0.00 81 1002.0
20260509143322 15 261 1.6 1.6 0.00 0.00 0.00 80 1002.0
20260509142817 14 242 1.6 1.6 0.00 0.00 0.00 81 1001.9
20260509142314 13 263 0.0 0.0 0.00 0.00 0.00 83 1002.1
20260509141809 14 112 1.6 4.8 0.00 0.00 0.00 83 1002.3
20260509141307 14 276 8.0 12.9 0.00 0.00 0.00 82 1002.1
20260509140803 13 91 1.6 1.6 0.00 0.00 0.00 87 1002.0
20260509140300 13 127 0.0 0.0 0.00 0.00 0.00 88 1002.3
20260509135758 13 214 4.8 4.8 0.00 0.00 0.00 88 1002.5
20260509135255 12 77 3.2 3.2 0.00 0.00 0.00 89 1002.4
20260509134752 12 205 0.0 0.0 0.00 0.00 0.00 93 1002.3
20260509134250 12 158 0.0 1.6 0.00 0.00 0.00 94 1002.7
20260509133747 11 231 0.0 1.6 0.00 0.00 0.00 94 1002.7
20260509133243 12 279 0.0 1.6 0.00 0.00 0.00 94 1002.6
20260509132742 12 47 0.0 0.0 0.00 0.00 0.00 93 1003.5
20260509132240 12 93 3.2 3.2 0.00 0.00 0.00 91 1003.6
20260509131737 12 269 0.0 0.0 0.00 0.00 0.00 89 1004.3
20260509131233 12 322 0.0 0.0 0.00 0.00 0.00 88 1004.3
20260509130729 12 356 3.2 3.2 0.00 0.00 0.00 86 1004.3
20260509130225 13 297 8.0 11.3 0.00 0.00 0.00 84 1004.2
20260509125722 13 295 3.2 3.2 0.00 0.00 0.00 83 1003.5
20260509125219 13 223 0.0 0.0 0.00 0.00 0.00 83 1002.7
20260509124715 13 315 1.6 4.8 0.00 0.00 0.00 83 1002.7
20260509124212 13 194 0.0 0.0 0.00 0.00 0.00 82 1002.9
20260509123710 13 209 0.0 0.0 0.00 0.00 0.00 82 1002.9
20260509123207 13 225 1.6 3.2 0.00 0.00 0.00 82 1003.1
20260509122702 13 212 1.6 4.8 0.00 0.00 0.00 81 1002.8
20260509122200 13 235 3.2 9.7 0.00 0.00 0.00 83 1003.1
20260509121656 13 189 1.6 1.6 0.00 0.00 0.00 84 1002.9
20260509121154 12 218 0.0 0.0 0.00 0.00 0.00 86 1003.0
20260509120652 12 150 1.6 3.2 0.00 0.00 0.00 88 1003.2
20260509120150 12 228 0.0 0.0 0.00 0.00 0.00 89 1003.4
20260509115647 11 205 0.0 0.0 0.00 0.00 0.00 91 1003.3
20260509115144 11 215 0.0 0.0 0.00 0.00 0.00 93 1003.4
20260509114642 11 182 0.0 0.0 0.00 0.00 0.00 93 1003.6
20260509114142 11 352 0.0 0.0 0.00 0.00 0.00 93 1003.7
20260509113639 11 65 0.0 0.0 0.00 0.00 0.00 94 1003.7
20260509113136 10 199 1.6 1.6 0.00 0.00 0.00 95 1003.7
20260509112632 10 214 0.0 0.0 0.00 0.00 0.00 96 1003.9
20260509112130 10 246 0.0 0.0 0.00 0.00 0.00 96 1003.7
20260509111627 10 73 1.6 3.2 0.00 0.00 0.00 96 1003.4
20260509111124 10 199 0.0 0.0 0.00 0.00 0.00 97 1003.6
20260509110621 10 234 0.0 0.0 0.00 0.00 0.00 97 1003.9
20260509110118 10 242 0.0 0.0 0.00 0.00 0.00 98 1003.6
20260509105616 9 261 0.0 0.0 0.00 0.00 0.00 98 1003.9
20260509105113 9 286 0.0 1.6 0.00 0.00 0.00 98 1003.9
20260509104610 9 288 0.0 0.0 0.00 0.00 0.00 99 1003.7
20260509104108 9 314 0.0 0.0 0.00 0.00 0.00 99 1003.6
20260509103605 8 100 0.0 0.0 0.00 0.00 0.00 99 1004.0
20260509103103 8 2 0.0 0.0 0.00 0.00 0.00 99 1003.7
20260509102600 8 273 0.0 0.0 0.00 0.00 0.00 98 1003.9
20260509102056 8 275 0.0 0.0 0.00 0.00 0.00 98 1004.1
20260509101553 8 246 0.0 0.0 0.00 0.00 0.00 98 1004.2
20260509101050 8 257 0.0 0.0 0.00 0.00 0.00 98 1003.7
20260509100547 8 230 0.0 0.0 0.00 0.00 0.00 97 1004.1
20260509100044 8 273 0.0 0.0 0.00 0.00 0.00 97 1004.3
20260509095540 7 298 0.0 0.0 0.00 0.00 0.00 96 1004.2
20260509095038 7 206 0.0 0.0 0.00 0.00 0.00 96 1004.3
20260509094534 7 256 0.0 0.0 0.00 0.00 0.00 95 1004.4
20260509094032 7 283 0.0 0.0 0.00 0.00 0.00 94 1004.5
20260509093530 7 255 0.0 0.0 0.00 0.00 0.00 93 1004.7
20260509093027 7 289 0.0 0.0 0.00 0.00 0.00 92 1004.6
20260509092525 7 277 0.0 0.0 0.00 0.00 0.00 92 1004.8
20260509092023 7 199 0.0 0.0 0.00 0.00 0.00 92 1005.0
20260509091520 7 301 0.0 0.0 0.00 0.00 0.00 91 1004.6
20260509091017 7 287 0.0 0.0 0.00 0.00 0.00 90 1004.7
20260509090514 6 345 0.0 0.0 0.00 0.00 0.00 89 1004.7
20260509090012 6 293 0.0 0.0 0.00 0.00 0.00 88 1004.7
20260509085509 6 267 0.0 0.0 0.00 0.00 0.00 87 1004.8
20260509085005 7 275 0.0 0.0 0.00 0.00 0.00 86 1004.7
20260509084502 7 271 0.0 0.0 0.00 0.00 0.00 85 1004.8
20260509083959 7 277 0.0 0.0 0.00 0.00 0.00 83 1004.7
20260509083456 7 294 0.0 0.0 0.00 0.00 0.00 82 1004.7
20260509082952 7 267 0.0 0.0 0.00 0.00 0.00 81 1005.0
20260509082450 7 264 0.0 0.0 0.00 0.00 0.00 80 1004.8
20260509081947 7 272 0.0 0.0 0.00 0.00 0.00 79 1004.9
20260509081444 7 198 0.0 0.0 0.00 0.00 0.00 77 1004.9
20260509080941 7 273 0.0 0.0 0.00 0.00 0.00 75 1004.8
20260509080440 7 296 0.0 0.0 0.00 0.00 0.00 73 1004.6
20260509075937 7 282 0.0 0.0 0.00 0.00 0.00 71 1004.7
20260509075434 7 255 0.0 0.0 0.00 0.00 0.00 70 1004.6
20260509074932 7 294 0.0 0.0 0.00 0.00 0.00 67 1004.5
20260509074429 7 262 0.0 0.0 0.00 0.00 0.00 64 1004.7
20260509073925 7 252 0.0 0.0 0.00 0.00 0.00 63 1004.8
20260509073422 7 255 0.0 0.0 0.00 0.00 0.00 61 1004.8
20260509072918 7 257 0.0 0.0 0.00 0.00 0.00 60 1005.0
20260509072415 7 250 0.0 0.0 0.00 0.00 0.00 58 1004.8
20260509071911 7 256 0.0 0.0 0.00 0.00 0.00 58 1005.0
20260509071409 7 304 0.0 0.0 0.00 0.00 0.00 57 1005.0
20260509070906 7 294 0.0 0.0 0.00 0.00 0.00 58 1004.9
20260509070403 7 318 0.0 0.0 0.00 0.00 0.00 58 1005.1
20260509065858 7 288 0.0 0.0 0.00 0.00 0.00 58 1005.2
20260509065355 7 230 0.0 0.0 0.00 0.00 0.00 59 1005.2
20260509064851 6 326 0.0 0.0 0.00 0.00 0.00 60 1005.2
20260509064349 6 279 0.0 0.0 0.00 0.00 0.00 60 1005.4
20260509063846 6 238 0.0 0.0 0.00 0.00 0.00 62 1005.5
20260509063342 6 328 0.0 0.0 0.00 0.00 0.00 65 1005.4
20260509062839 6 321 0.0 0.0 0.00 0.00 0.00 69 1005.5
20260509062336 6 312 0.0 0.0 0.00 0.00 0.00 71 1005.5
20260509061834 6 292 0.0 0.0 0.00 0.00 0.00 70 1005.4
20260509061332 5 299 0.0 0.0 0.00 0.00 0.00 69 1005.5
20260509060828 5 299 0.0 0.0 0.00 0.00 0.00 70 1005.4
20260509060326 5 299 0.0 0.0 0.00 0.00 0.00 71 1005.6
20260509055821 6 301 0.0 0.0 0.00 0.00 0.00 71 1005.5
20260509055316 6 301 0.0 0.0 0.00 0.00 0.00 73 1005.6
20260509054814 6 314 0.0 0.0 0.00 0.00 0.00 72 1005.5
20260509054310 6 297 0.0 0.0 0.00 0.00 0.00 70 1005.7
20260509053809 6 322 0.0 0.0 0.00 0.00 0.00 69 1005.4
20260509053305 7 350 0.0 0.0 0.00 0.00 0.00 70 1005.5
20260509052803 7 318 0.0 0.0 0.00 0.00 0.00 69 1005.8
20260509052301 7 303 0.0 0.0 0.00 0.00 0.00 68 1005.6
20260509051758 7 284 0.0 0.0 0.00 0.00 0.00 67 1005.8
20260509051256 7 331 0.0 0.0 0.00 0.00 0.00 67 1005.7
20260509050753 7 279 0.0 0.0 0.00 0.00 0.00 67 1005.7
20260509050249 7 15 0.0 0.0 0.00 0.00 0.00 66 1005.7
20260509045747 7 260 0.0 0.0 0.00 0.00 0.00 66 1005.9
20260509045243 8 260 0.0 0.0 0.00 0.00 0.00 63 1006.0
20260509044741 8 268 0.0 0.0 0.00 0.00 0.00 62 1005.9
20260509044238 8 277 0.0 0.0 0.00 0.00 0.00 63 1005.8
20260509043734 8 287 0.0 0.0 0.00 0.00 0.00 62 1005.9
20260509043230 8 265 0.0 0.0 0.00 0.00 0.00 65 1006.0
20260509042726 8 265 0.0 0.0 0.00 0.00 0.00 63 1006.0
20260509042223 8 265 0.0 0.0 0.00 0.00 0.00 61 1006.1
20260509041720 8 265 0.0 0.0 0.00 0.00 0.00 61 1005.8
20260509041217 9 263 0.0 0.0 0.00 0.00 0.00 62 1005.9
20260509040716 9 243 0.0 0.0 0.00 0.00 0.00 60 1006.2
20260509040212 9 244 0.0 0.0 0.00 0.00 0.00 61 1006.2
20260509035708 9 257 0.0 0.0 0.00 0.00 0.00 60 1006.3
20260509035205 9 258 0.0 0.0 0.00 0.00 0.00 61 1006.3
20260509034703 9 280 0.0 0.0 0.00 0.00 0.00 62 1006.1
20260509034200 9 289 0.0 0.0 0.00 0.00 0.00 59 1006.3
20260509033657 10 323 0.0 0.0 0.00 0.00 0.00 61 1006.4
20260509033154 10 316 0.0 0.0 0.00 0.00 0.00 61 1006.3
20260509032651 10 281 0.0 0.0 0.00 0.00 0.00 62 1006.3
20260509032148 9 292 0.0 0.0 0.00 0.00 0.00 63 1006.5
20260509031646 9 292 0.0 0.0 0.00 0.00 0.00 62 1006.8
20260509031143 9 292 0.0 0.0 0.00 0.00 0.00 62 1006.7
20260509030641 9 293 0.0 0.0 0.00 0.00 0.00 60 1006.5
20260509030138 9 293 0.0 0.0 0.00 0.00 0.00 60 1006.7
20260509025634 9 293 0.0 0.0 0.00 0.00 0.00 59 1006.7
20260509025130 9 292 0.0 0.0 0.00 0.00 0.00 61 1006.8
20260509024625 8 292 0.0 0.0 0.00 0.00 0.00 63 1006.8
20260509024121 8 315 0.0 0.0 0.00 0.00 0.00 62 1006.8
20260509023620 8 322 0.0 0.0 0.00 0.00 0.00 61 1006.7
20260509023116 8 322 0.0 0.0 0.00 0.00 0.00 60 1006.9
20260509022613 8 322 0.0 0.0 0.00 0.00 0.00 60 1006.7
20260509022111 9 322 0.0 0.0 0.00 0.00 0.00 59 1006.9
20260509021607 9 267 0.0 0.0 0.00 0.00 0.00 59 1007.0
20260509021104 9 268 0.0 0.0 0.00 0.00 0.00 58 1006.7
20260509020603 9 268 0.0 0.0 0.00 0.00 0.00 58 1006.9
20260509020059 9 268 0.0 0.0 0.00 0.00 0.00 58 1006.8
20260509015558 10 268 0.0 0.0 0.00 0.00 0.00 57 1006.9
20260509015055 10 268 0.0 0.0 0.00 0.00 0.00 56 1006.8
20260509014552 10 268 0.0 0.0 0.00 0.00 0.00 55 1006.8
20260509014048 10 268 0.0 0.0 0.00 0.00 0.00 54 1006.9
20260509013545 10 267 0.0 0.0 0.00 0.00 0.00 52 1006.6
20260509013040 11 268 0.0 0.0 0.00 0.00 0.00 51 1006.7
20260509012538 11 290 0.0 0.0 0.00 0.00 0.00 50 1006.6
20260509012034 11 292 0.0 0.0 0.00 0.00 0.00 50 1006.2
20260509011532 11 292 0.0 0.0 0.00 0.00 0.00 49 1006.3
20260509011029 11 292 0.0 0.0 0.00 0.00 0.00 47 1006.4
20260509010527 12 292 0.0 0.0 0.00 0.00 0.00 46 1006.3
20260509010024 12 289 0.0 0.0 0.00 0.00 0.00 44 1006.2
20260509005521 13 293 0.0 0.0 0.00 0.00 0.00 42 1006.2
20260509005021 13 292 0.0 0.0 0.00 0.00 0.00 40 1006.3
20260509004519 13 292 0.0 0.0 0.00 0.00 0.00 39 1006.1
20260509004015 13 292 0.0 0.0 0.00 0.00 0.00 38 1006.0
20260509003514 14 292 0.0 0.0 0.00 0.00 0.00 40 1006.1
20260509003010 14 316 0.0 0.0 0.00 0.00 0.00 37 1006.0
20260509002508 15 273 0.0 0.0 0.00 0.00 0.00 36 1006.2
20260509002005 15 276 0.0 0.0 0.00 0.00 0.00 36 1006.1
20260509001502 15 294 0.0 0.0 0.00 0.00 0.00 34 1006.0
20260509000959 15 310 0.0 0.0 0.00 0.00 0.00 33 1005.9
20260509000457 15 292 0.0 0.0 0.00 0.00 0.00 35 1006.0
20260508235952 15 266 0.0 0.0 0.00 0.00 0.00 33 1006.0
20260508235450 16 298 0.0 0.0 0.00 0.00 0.00 33 1006.0
20260508234947 16 282 0.0 0.0 0.00 0.00 0.00 31 1005.8
20260508234444 16 271 4.8 8.0 0.00 0.00 0.00 31 1005.8
20260508233941 16 259 3.2 3.2 0.00 0.00 0.00 31 1005.9
20260508233441 16 250 0.0 1.6 0.00 0.00 0.00 30 1006.0
20260508232937 17 281 1.6 1.6 0.00 0.00 0.00 31 1005.6
20260508232434 17 304 0.0 0.0 0.00 0.00 0.00 29 1005.8
20260508231931 17 303 1.6 3.2 0.00 0.00 0.00 30 1005.8
20260508231428 17 309 0.0 0.0 0.00 0.00 0.00 30 1005.8
20260508230925 17 279 6.4 8.0 0.00 0.00 0.00 29 1005.8
20260508230422 17 225 4.8 4.8 0.00 0.00 0.00 29 1006.0
20260508225919 17 282 4.8 9.7 0.00 0.00 0.00 30 1006.1
20260508225415 17 353 1.6 1.6 0.00 0.00 0.00 29 1006.2
20260508224913 17 262 6.4 9.7 0.00 0.00 0.00 28 1006.2
20260508224411 18 238 4.8 8.0 0.00 0.00 0.00 30 1006.0
20260508223908 18 266 0.0 0.0 0.00 0.00 0.00 29 1006.2
20260508223406 18 325 0.0 0.0 0.00 0.00 0.00 29 1006.2
20260508222903 18 268 1.6 3.2 0.00 0.00 0.00 30 1006.1
20260508222400 17 225 1.6 1.6 0.00 0.00 0.00 31 1006.3
20260508221856 17 262 0.0 0.0 0.00 0.00 0.00 31 1006.2
20260508221352 17 242 0.0 0.0 0.00 0.00 0.00 30 1006.2
20260508220849 17 214 4.8 8.0 0.00 0.00 0.00 31 1006.6
20260508220345 17 215 6.4 9.7 0.00 0.00 0.00 30 1006.4
20260508215841 17 224 8.0 11.3 0.00 0.00 0.00 30 1006.6
20260508215338 17 246 3.2 3.2 0.00 0.00 0.00 31 1006.5
20260508214835 18 291 3.2 4.8 0.00 0.00 0.00 33 1006.6
20260508214332 18 311 3.2 4.8 0.00 0.00 0.00 30 1006.5
20260508213828 17 290 0.0 1.6 0.00 0.00 0.00 30 1006.6
20260508213325 17 66 1.6 1.6 0.00 0.00 0.00 32 1006.6
20260508212822 17 220 0.0 1.6 0.00 0.00 0.00 30 1006.8
20260508212318 17 232 4.8 8.0 0.00 0.00 0.00 30 1006.7
20260508211814 17 254 3.2 4.8 0.00 0.00 0.00 30 1006.8
20260508211309 17 279 11.3 16.1 0.00 0.00 0.00 30 1006.8
20260508210808 17 279 8.0 17.7 0.00 0.00 0.00 31 1006.8
20260508210304 17 273 4.8 8.0 0.00 0.00 0.00 30 1006.6
20260508205801 17 293 1.6 3.2 0.00 0.00 0.00 31 1006.9
20260508205257 17 273 3.2 8.0 0.00 0.00 0.00 30 1006.9
20260508204753 17 174 4.8 9.7 0.00 0.00 0.00 29 1007.0
20260508204250 17 251 11.3 20.9 0.00 0.00 0.00 29 1007.1
20260508203746 17 297 4.8 4.8 0.00 0.00 0.00 30 1006.9
20260508203243 18 294 6.4 8.0 0.00 0.00 0.00 32 1007.3
20260508202738 17 300 3.2 3.2 0.00 0.00 0.00 33 1007.4
20260508202236 17 271 6.4 12.9 0.00 0.00 0.00 32 1007.5
20260508201733 17 210 4.8 4.8 0.00 0.00 0.00 32 1007.7
20260508201229 17 216 3.2 8.0 0.00 0.00 0.00 34 1007.5
20260508200726 17 264 0.0 0.0 0.00 0.00 0.00 32 1007.7
20260508200222 16 213 1.6 1.6 0.00 0.00 0.00 33 1007.9
20260508195719 16 322 6.4 9.7 0.00 0.00 0.00 33 1007.9
20260508195215 17 247 3.2 4.8 0.00 0.00 0.00 32 1008.0
20260508194712 17 313 11.3 14.5 0.00 0.00 0.00 31 1008.0
20260508194209 16 204 0.0 0.0 0.00 0.00 0.00 33 1008.1
20260508193706 16 336 1.6 4.8 0.00 0.00 0.00 33 1008.2
20260508193203 17 203 4.8 8.0 0.00 0.00 0.00 33 1008.4
20260508192659 16 222 1.6 1.6 0.00 0.00 0.00 34 1008.4
20260508192156 16 269 6.4 8.0 0.00 0.00 0.00 34 1008.4
20260508191654 16 248 4.8 11.3 0.00 0.00 0.00 33 1008.4
20260508191150 17 308 4.8 8.0 0.00 0.00 0.00 33 1008.2
20260508190648 16 284 6.4 9.7 0.00 0.00 0.00 32 1008.8
20260508190144 17 280 1.6 1.6 0.00 0.00 0.00 34 1008.7
20260508185641 16 286 1.6 3.2 0.00 0.00 0.00 33 1008.7
20260508185138 17 221 6.4 11.3 0.00 0.00 0.00 34 1008.8
20260508184635 16 281 9.7 11.3 0.00 0.00 0.00 32 1009.0
20260508184132 16 121 0.0 0.0 0.00 0.00 0.00 35 1008.9
20260508183629 16 284 0.0 1.6 0.00 0.00 0.00 33 1008.9
20260508183125 16 327 0.0 0.0 0.00 0.00 0.00 33 1009.2
20260508182621 16 232 0.0 3.2 0.00 0.00 0.00 35 1009.3
20260508182118 15 227 3.2 4.8 0.00 0.00 0.00 36 1009.2
20260508181613 16 279 9.7 14.5 0.00 0.00 0.00 31 1009.2
20260508181111 16 224 8.0 12.9 0.00 0.00 0.00 32 1009.2
20260508180608 17 292 0.0 1.6 0.00 0.00 0.00 31 1009.2
20260508180104 16 172 0.0 0.0 0.00 0.00 0.00 33 1009.5
20260508175601 16 266 0.0 0.0 0.00 0.00 0.00 33 1009.4
20260508175058 16 273 8.0 14.5 0.00 0.00 0.00 32 1009.7
20260508174555 15 247 3.2 4.8 0.00 0.00 0.00 33 1009.8
20260508174052 16 288 8.0 9.7 0.00 0.00 0.00 32 1009.7
20260508173549 16 262 0.0 0.0 0.00 0.00 0.00 31 1009.8
20260508173045 15 283 4.8 4.8 0.00 0.00 0.00 32 1010.0
20260508172543 16 218 8.0 9.7 0.00 0.00 0.00 30 1010.3
20260508172039 15 201 0.0 1.6 0.00 0.00 0.00 33 1010.1
20260508171536 15 214 0.0 1.6 0.00 0.00 0.00 33 1010.3
20260508171032 16 217 9.7 14.5 0.00 0.00 0.00 33 1010.1
20260508170529 15 36 0.0 1.6 0.00 0.00 0.00 32 1010.3
20260508170027 15 275 1.6 3.2 0.00 0.00 0.00 34 1010.4
20260508165524 15 320 0.0 1.6 0.00 0.00 0.00 32 1010.4
20260508165020 14 271 1.6 3.2 0.00 0.00 0.00 32 1010.5
20260508164517 14 219 6.4 11.3 0.00 0.00 0.00 32 1010.6
20260508164014 14 289 4.8 8.0 0.00 0.00 0.00 35 1010.6
20260508163511 14 333 3.2 8.0 0.00 0.00 0.00 34 1010.7
20260508163008 15 209 0.0 0.0 0.00 0.00 0.00 36 1010.9
20260508162505 14 49 0.0 0.0 0.00 0.00 0.00 34 1010.8
20260508162002 14 253 1.6 3.2 0.00 0.00 0.00 33 1010.9
20260508161458 13 248 1.6 3.2 0.00 0.00 0.00 36 1010.9
20260508160956 14 199 3.2 4.8 0.00 0.00 0.00 38 1011.0
20260508160454 14 288 12.9 12.9 0.00 0.00 0.00 35 1011.0
20260508155950 15 296 8.0 9.7 0.00 0.00 0.00 37 1010.8
20260508155448 13 289 0.0 0.0 0.00 0.00 0.00 40 1010.9
20260508154944 14 276 6.4 8.0 0.00 0.00 0.00 37 1011.0
20260508154442 14 287 1.6 3.2 0.00 0.00 0.00 40 1011.2
20260508153938 13 308 0.0 0.0 0.00 0.00 0.00 40 1011.3
20260508153436 15 290 1.6 1.6 0.00 0.00 0.00 39 1011.2
20260508152932 13 80 1.6 3.2 0.00 0.00 0.00 40 1011.1
20260508152428 13 282 3.2 8.0 0.00 0.00 0.00 43 1011.1
20260508151925 13 263 0.0 3.2 0.00 0.00 0.00 43 1011.3
20260508151422 13 223 0.0 0.0 0.00 0.00 0.00 44 1011.5
20260508150918 13 240 3.2 4.8 0.00 0.00 0.00 43 1011.3
20260508150415 12 260 1.6 1.6 0.00 0.00 0.00 42 1011.4
20260508145911 13 279 3.2 3.2 0.00 0.00 0.00 40 1011.6
20260508145407 12 292 9.7 12.9 0.00 0.00 0.00 42 1011.4
20260508144904 13 245 0.0 1.6 0.00 0.00 0.00 45 1011.6
20260508144402 13 309 3.2 3.2 0.00 0.00 0.00 44 1011.8